Regional Weather Roundup
Issued by NWS

Home | Current Version | Previous Version | Text Only | Print | Product List | Glossary Off
Versions: 1 2 3 4 5 6 7 8 9 10 11 12 13 14 15 16 17 18 19 20 21 22 23 24 25 26 27 28 29 30 31 32 33 34 35 36 37 38 39 40 41 42 43 44 45 46 47 48 49 50

000
ASUS45 KSLC 230310
RWRUT

UTAH REGIONAL WEATHER ROUNDUP
NATIONAL WEATHER SERVICE SALT LAKE CITY UT
800 PM MST MON DEC 22 2014

UTZ001>011-023>025-230400-

NORTHERN UTAH

CITY           SKY/WX    TMP DP  RH WIND       PRES   REMARKS
BRIGHAM CITY   CLOUDY    35  32  89 E3        30.13R
HILL AFB       CLOUDY    33  32  96 N6        30.12R WCI  28
LOGAN          MOCLDY    34  31  88 E5        30.12R WCI  30
OGDEN          CLOUDY    34  31  88 N13       30.11R WCI  25
PROVO AIRPORT  NOT AVBL
SALT LAKE CITY CLOUDY    39  30  70 N21       30.11R WCI  29
VERNAL         MOCLDY    35  16  45 N18G30    29.97R WCI  24
WENDOVER       CLOUDY    43  21  42 N22G36    30.22R
HEBER CITY     CLOUDY    32  28  86 SW6       30.03R WCI  26
WEST JORDAN    CLOUDY    37  30  75 NW25G32   30.11R WCI  26

$$

UTZ012>022-026-027-230400-

SOUTHERN/CENTRAL UTAH

CITY           SKY/WX    TMP DP  RH WIND       PRES   REMARKS
BLANDING       CLOUDY    39  22  49 NW10      29.95R WCI  32
BRYCE CANYON   FLURRIES  34  24  67 NW16G33   30.03R WCI  24
CEDAR CITY     PTCLDY    36  31  82 N8        30.08R WCI  30
DELTA          CLEAR     35  23  59 N18       30.12R WCI  25
MILFORD        CLOUDY    41  28  60 NE18G26   30.10R
MOAB/CYNLANDS  CLOUDY    37  29  72 E13       29.94R WCI  29
PRICE          PTCLDY    35  16  45 NW18G29   29.94R WCI  24
ST GEORGE      MOCLDY    52  37  58 CALM      30.04R
KANAB          CLEAR     48  32  53 W13G18    30.05R

$$

REGIONAL REPORTS     COLORADO/ARIZONA

CITY           SKY/WX    TMP DP  RH WIND       PRES   REMARKS
CRAIG, CO      MOCLDY    25  18  74 N3        29.93R
GRAND JUNCTION MOCLDY    33  27  78 NW7       29.92R WCI  27
RIFLE          PTCLDY    26  22  84 NE8       29.91R WCI  18
MONTROSE       CLOUDY    33  25  72 NW9       29.93R WCI  25
CORTEZ         CLOUDY    36  27  69 N18G29    29.86R WCI  26
PAGE, AZ       CLEAR     52  29  41 NW9       29.96R
GRAND CANYON   CLEAR     44  30  57 VRB5      30.03R
KINGMAN        CLEAR     49  36  61 CALM      30.04R
FLAGSTAFF      PTCLDY    44  30  57 NW8       30.03F

$$

REGIONAL REPORTS    NEVADA/IDAHO/WYOMING

CITY           SKY/WX    TMP DP  RH WIND       PRES   REMARKS
LAS VEGAS, NV  CLEAR     68  36  30 W8        29.99R
ELY            MOCLDY    39  29  67 N16G23    30.18R WCI  30
ELKO           CLOUDY    41  28  60 NE7       30.28R
POCATELLO, ID  CLEAR     31  22  69 N8        30.17R WCI  23
BURLEY         CLEAR     34  27  75 W16       30.18R WCI  24
EVANSTON, WY   CLOUDY    26  19  74 N20       30.03R WCI  12
ROCK SPRINGS   PTCLDY    19  14  81 N5        29.97R WCI  12
KEMMERER       CLEAR     19  12  73 NW15      30.01R WCI   5

$$



USA.gov is the U.S. government's official web portal to all federal, state and local government web resources and services.